"2009-07-19 00:00:00",1074529,2.126,110.8,4.966,0.123,20.54,110.185,25.37,26.42,31.62,0,111.3,13.09,26.21,72.8
"2009-07-19 00:00:30",1074530,1.943,130.2,6.821,0.185,20.62,110.1951,25.4,26.41,31.6,0,111.3,13.09,26.24,92.2
"2009-07-19 00:01:00",1074531,2.183,142.4,5.564,0.185,20.81,110.2059,25.42,26.42,31.56,0,111.3,13.09,26.26,104.4
"2009-07-19 00:01:30",1074532,1.727,132.4,9.23,0.317,20.97,110.2122,25.44,26.44,31.53,0,111.3,13.08,26.28,94.4
"2009-07-19 00:02:00",1074533,1.35,127.7,10.33,0.12,21.12,110.2131,25.44,26.44,31.53,0,111.3,13.08,26.28,89.7
"2009-07-19 00:02:30",1074534,2.009,156,12.67,0.295,21.15,110.2146,25.45,26.45,31.48,0,111.3,13.07,26.29,118.0
"2009-07-19 00:03:00",1074535,2.489,159.5,6.864,0.234,21.27,110.2137,25.44,26.45,31.42,0,111.3,13.08,26.28,121.5
"2009-07-19 00:03:30",1074536,2.451,163.8,4.518,0.265,21.34,110.2143,25.45,26.44,31.46,0,111.3,13.08,26.29,125.8
"2009-07-19 00:04:00",1074537,2.857,164.3,3.497,0.163,21.39,110.2147,25.45,26.45,31.53,0,111.3,13.07,26.29,126.3
"2009-07-19 00:04:30",1074538,2.347,169.2,3.843,0.227,21.46,110.2086,25.43,26.45,31.52,0,111.3,13.08,26.27,131.2
"2009-07-19 00:05:00",1074539,2.106,165.3,4.623,0.182,21.48,110.2008,25.41,26.44,31.53,0,111.3,13.08,26.25,127.3
"2009-07-19 00:05:30",1074540,2.17,160.4,3.9,0.138,21.49,110.1974,25.4,26.43,31.56,0,111.3,13.08,26.24,122.4
"2009-07-19 00:06:00",1074541,1.893,169.2,8.48,0.131,21.54,110.193,25.39,26.43,31.57,0,111.3,13.08,26.23,131.2
"2009-07-19 00:06:30",1074542,1.586,173.5,5.82,0.211,21.54,110.1893,25.38,26.42,31.57,0,111.3,13.08,26.22,135.5
"2009-07-19 00:07:00",1074543,1.685,172.3,5.149,0.123,21.51,110.1893,25.38,26.41,31.58,0,111.3,13.09,26.22,134.3
"2009-07-19 00:07:30",1074544,2.129,169.4,3.055,0.265,21.59,110.1876,25.38,26.39,31.54,0,111.3,13.09,26.22,131.4
"2009-07-19 00:08:00",1074545,1.862,167.9,2.42,0.307,21.6,110.1747,25.34,26.39,31.45,0,111.3,13.09,26.18,129.9
"2009-07-19 00:08:30",1074546,1.858,186,8.6,0.209,21.61,110.1681,25.33,26.39,31.53,0,111.3,13.09,26.17,148.0
"2009-07-19 00:09:00",1074547,1.66,197,4.923,0.299,21.61,110.1643,25.32,26.37,31.61,0,111.3,13.09,26.16,159.0
"2009-07-19 00:09:30",1074548,1.185,186,12.77,0.397,21.61,110.1596,25.3,26.36,31.71,0,111.3,13.09,26.14,148.0
"2009-07-19 00:10:00",1074549,0.79,188.4,8.68,0.098,21.61,110.1433,25.26,26.34,31.66,0,111.3,13.09,26.10,150.4
"2009-07-19 00:10:30",1074550,1,168.8,11.09,0.261,21.61,110.1344,25.24,26.31,31.53,0,111.3,13.09,26.08,130.8
"2009-07-19 00:11:00",1074551,1.207,158.2,5.331,0.114,21.62,110.1304,25.23,26.3,31.62,0,111.3,13.09,26.07,120.2
"2009-07-19 00:11:30",1074552,1.194,148.3,5.279,0.159,21.6,110.1142,25.19,26.29,31.73,0,111.3,13.09,26.03,110.3
"2009-07-19 00:12:00",1074553,1.234,138.3,7.078,0.317,21.63,110.101,25.15,26.27,31.77,0,111.3,13.09,25.99,100.3
"2009-07-19 00:12:30",1074554,1.017,135.3,5.479,0.186,21.61,110.0951,25.14,26.23,31.76,0,111.3,13.09,25.98,97.3
"2009-07-19 00:13:00",1074555,1.491,127.9,5.436,0.138,21.61,110.0721,25.08,26.23,31.84,0,111.3,13.09,25.92,89.9
"2009-07-19 00:13:30",1074556,1.881,132.2,3.788,0.274,21.63,110.0628,25.06,26.2,31.89,0,111.3,13.09,25.90,94.2
"2009-07-19 00:14:00",1074557,1.875,139.9,9.68,0.168,21.65,110.0471,25.02,26.16,31.96,0,111.3,13.09,25.85,101.9
"2009-07-19 00:14:30",1074558,1.581,176.3,4.5,0.135,21.69,110.0433,25.01,26.13,32.01,0,111.3,13.09,25.84,138.3
"2009-07-19 00:15:00",1074559,1.185,156.3,9.32,0.138,21.66,110.0419,25,26.09,32.04,0,111.3,13.09,25.84,118.3
"2009-07-19 00:15:30",1074560,1.386,148.9,4.117,0.081,21.7,110.0274,24.97,26.07,32.03,0,111.3,13.09,25.80,110.9
"2009-07-19 00:16:00",1074561,1.254,146.8,6.719,0.073,21.65,110.0196,24.94,26.04,32.02,0,111.2,13.09,25.78,108.8
"2009-07-19 00:16:30",1074562,1.307,131.8,4.586,0.159,21.62,110.0195,24.94,26.03,32.12,0,111.3,13.1,25.78,93.8
"2009-07-19 00:17:00",1074563,1.559,134.2,4.585,0.139,21.62,110.0094,24.92,26,32.19,0,111.2,13.1,25.76,96.2
"2009-07-19 00:17:30",1074564,1.53,141.5,3.825,0.109,21.65,109.9919,24.87,25.98,32.24,0,111.2,13.1,25.71,103.5
"2009-07-19 00:18:00",1074565,1.436,130.8,5.241,0.134,21.62,109.9834,24.85,25.95,32.3,0,111.2,13.1,25.69,92.8
"2009-07-19 00:18:30",1074566,1.536,132.5,7.563,0.245,21.48,109.9607,24.79,25.92,32.37,0,111.2,13.09,25.63,94.5
"2009-07-19 00:19:00",1074567,1.862,130.6,4.007,0.128,21.36,109.9551,24.78,25.89,32.42,0,111.2,13.09,25.62,92.6
"2009-07-19 00:19:30",1074568,1.322,136.6,3.79,0.249,21.15,109.9407,24.74,25.86,32.44,0,111.2,13.09,25.58,98.6
"2009-07-19 00:20:00",1074569,1.498,150.9,4.25,0.237,20.97,109.927,24.71,25.83,32.45,0,111.2,13.09,25.55,112.9
"2009-07-19 00:20:30",1074570,1.445,147.6,3.032,0.136,20.98,109.9311,24.72,25.8,32.53,0,111.2,13.09,25.56,109.6
"2009-07-19 00:21:00",1074571,1.296,147.9,1.477,0.056,20.88,109.9258,24.7,25.78,32.53,0,111.2,13.09,25.54,109.9
"2009-07-19 00:21:30",1074572,1.03,155.4,9.59,0.17,20.67,109.9188,24.69,25.76,32.51,0,111.2,13.09,25.52,117.4
"2009-07-19 00:22:00",1074573,0.886,160.9,4.119,0.073,20.61,109.9116,24.67,25.75,32.58,0,111.2,13.09,25.51,122.9
"2009-07-19 00:22:30",1074574,0.92,156.8,3.192,0.055,20.51,109.9141,24.67,25.75,32.6,0,111.2,13.09,25.51,118.8
"2009-07-19 00:23:00",1074575,0.988,154.7,4.555,0.063,20.41,109.918,24.68,25.73,32.56,0,111.2,13.09,25.52,116.7
"2009-07-19 00:23:30",1074576,1.448,160.9,8.09,0.453,20.48,109.9273,24.71,25.73,32.52,0,111.2,13.09,25.55,122.9
"2009-07-19 00:24:00",1074577,1.982,175.4,7.626,0.149,20.55,109.9321,24.72,25.73,32.58,0,111.2,13.1,25.56,137.4
"2009-07-19 00:24:30",1074578,1.809,178.1,6.459,0.157,20.57,109.9324,24.72,25.74,32.72,0,111.2,13.1,25.56,140.1
"2009-07-19 00:25:00",1074579,1.695,182.7,3.267,0.089,20.56,109.9368,24.73,25.75,32.74,0,111.2,13.1,25.57,144.7
"2009-07-19 00:25:30",1074580,2.18,174.9,4.126,0.307,20.54,109.9474,24.76,25.77,32.74,0,111.2,13.1,25.60,136.9
"2009-07-19 00:26:00",1074581,2.385,181.6,2.621,0.175,20.55,109.9612,24.79,25.79,32.71,0,111.2,13.1,25.63,143.6
"2009-07-19 00:26:30",1074582,2.062,174.2,4.672,0.174,20.57,109.9663,24.81,25.8,32.68,0,111.2,13.1,25.65,136.2
"2009-07-19 00:27:00",1074583,2.363,169.8,5.128,0.189,20.56,109.9657,24.81,25.8,32.64,0,111.2,13.1,25.64,131.8
"2009-07-19 00:27:30",1074584,2.593,171.5,5.615,0.222,20.62,109.9659,24.81,25.79,32.62,0,111.2,13.1,25.65,133.5
"2009-07-19 00:28:00",1074585,2.576,158.4,3.147,0.145,20.63,109.9761,24.83,25.81,32.56,0,111.2,13.1,25.67,120.4
"2009-07-19 00:28:30",1074586,1.958,160.2,6.695,0.257,20.58,109.9939,24.88,25.82,32.53,0,111.2,13.1,25.72,122.2
"2009-07-19 00:29:00",1074587,1.528,163.5,5.507,0.132,20.57,109.9959,24.88,25.85,32.51,0,111.2,13.1,25.72,125.5
"2009-07-19 00:29:30",1074588,1.492,157.5,4.593,0.096,20.53,110.0094,24.92,25.87,32.49,0,111.2,13.1,25.76,119.5
"2009-07-19 00:30:00",1074589,1.537,157.5,5.531,0.166,20.52,110.0258,24.96,25.89,32.46,0,111.2,13.1,25.80,119.5
"2009-07-19 00:30:30",1074590,1.515,153.5,3.305,0.102,20.47,110.0299,24.97,25.91,32.4,0,111.2,13.1,25.81,115.5
"2009-07-19 00:31:00",1074591,1.51,149.6,4.146,0.163,20.49,110.0436,25.01,25.93,32.36,0,111.2,13.1,25.85,111.6
"2009-07-19 00:31:30",1074592,1.827,154.1,6.786,0.115,20.43,110.0578,25.04,25.97,32.28,0,111.3,13.1,25.88,116.1
"2009-07-19 00:32:00",1074593,1.983,172.8,6.7,0.228,20.45,110.0656,25.06,26,32.23,0,111.2,13.1,25.90,134.8
"2009-07-19 00:32:30",1074594,2.089,165.1,4.823,0.25,20.49,110.0805,25.1,26.03,32.28,0,111.3,13.1,25.94,127.1
"2009-07-19 00:33:00",1074595,1.877,161.4,3.301,0.171,20.47,110.092,25.13,26.06,32.26,0,111.3,13.1,25.97,123.4
"2009-07-19 00:33:30",1074596,2.13,167.3,4.509,0.1,20.45,110.1007,25.15,26.08,32.22,0,111.3,13.1,25.99,129.3
"2009-07-19 00:34:00",1074597,2.442,173.6,4.84,0.165,20.47,110.1232,25.21,26.11,32.27,0,111.3,13.1,26.05,135.6
"2009-07-19 00:34:30",1074598,2.398,167.2,4.892,0.153,20.47,110.1259,25.22,26.15,32.21,0,111.3,13.1,26.06,129.2
"2009-07-19 00:35:00",1074599,2.474,169.6,3.917,0.094,20.57,110.1352,25.24,26.17,31.99,0,111.3,13.1,26.08,131.6
"2009-07-19 00:35:30",1074600,2.224,174.3,3.662,0.186,20.5,110.1526,25.29,26.2,31.94,0,111.3,13.1,26.13,136.3
"2009-07-19 00:36:00",1074601,1.883,174.7,1.851,0.063,20.53,110.1557,25.29,26.22,31.82,0,111.3,13.1,26.13,136.7
"2009-07-19 00:36:30",1074602,1.542,169.5,5.25,0.139,20.49,110.1585,25.3,26.24,31.71,0,111.3,13.1,26.14,131.5
"2009-07-19 00:37:00",1074603,1.166,172.9,6.687,0.181,20.6,110.1651,25.32,26.26,31.77,0,111.3,13.1,26.16,134.9
"2009-07-19 00:37:30",1074604,1.128,164.8,4.823,0.112,20.47,110.1814,25.36,26.29,31.78,0,111.3,13.1,26.20,126.8
"2009-07-19 00:38:00",1074605,1.335,178.1,4.13,0.108,20.6,110.1838,25.37,26.31,31.65,0,111.3,13.09,26.21,140.1
"2009-07-19 00:38:30",1074606,1.146,173.6,7.112,0.137,20.53,110.1827,25.36,26.34,31.59,0,111.3,13.09,26.20,135.6
"2009-07-19 00:39:00",1074607,1.345,180.1,8.75,0.387,20.56,110.1911,25.39,26.37,31.68,0,111.3,13.09,26.23,142.1
"2009-07-19 00:39:30",1074608,1.909,161.6,11.86,0.121,20.59,110.2074,25.43,26.38,31.68,0,111.3,13.09,26.27,123.6
"2009-07-19 00:40:00",1074609,1.899,148.1,3.128,0.355,20.57,110.2048,25.42,26.39,31.47,0,111.3,13.09,26.26,110.1
"2009-07-19 00:40:30",1074610,2.277,140.2,3.875,0.226,20.59,110.2111,25.44,26.41,31.34,0,111.3,13.09,26.28,102.2
"2009-07-19 00:41:00",1074611,1.737,146.6,5.184,0.178,20.61,110.2271,25.48,26.45,31.38,0,111.3,13.09,26.32,108.6
"2009-07-19 00:41:30",1074612,2.308,142,2.702,0.083,20.67,110.2332,25.49,26.46,31.49,0,111.3,13.09,26.33,104.0
"2009-07-19 00:42:00",1074613,2.562,152,3.285,0.148,20.71,110.2341,25.5,26.49,31.51,0,111.3,13.09,26.34,114.0
"2009-07-19 00:42:30",1074614,2.297,142.8,7.103,0.143,20.74,110.2399,25.51,26.51,31.44,0,111.3,13.09,26.35,104.8
"2009-07-19 00:43:00",1074615,2.038,153,6.568,0.289,20.75,110.2494,25.54,26.53,31.41,0,111.3,13.09,26.38,115.0
"2009-07-19 00:43:30",1074616,1.829,155.5,3.436,0.357,20.74,110.2603,25.56,26.53,31.36,0,111.3,13.09,26.40,117.5
"2009-07-19 00:44:00",1074617,1.191,150.8,6.604,0.119,20.7,110.2623,25.57,26.55,31.32,0,111.3,13.09,26.41,112.8
"2009-07-19 00:44:30",1074618,1.448,144.3,3.925,0.143,20.72,110.2648,25.57,26.58,31.22,0,111.3,13.09,26.42,106.3
"2009-07-19 00:45:00",1074619,1.51,151.9,5.741,0.225,20.63,110.2656,25.58,26.57,31.13,0,111.3,13.09,26.42,113.9
"2009-07-19 00:45:30",1074620,1.513,160.9,4.003,0.108,20.71,110.2659,25.58,26.58,31.24,0,111.3,13.09,26.42,122.9
"2009-07-19 00:46:00",1074621,1.262,164.5,4.539,0.138,20.7,110.2659,25.58,26.59,31.04,0,111.3,13.09,26.42,126.5
"2009-07-19 00:46:30",1074622,0.953,172.1,7.604,0.086,20.6,110.2648,25.57,26.59,30.87,0,111.3,13.09,26.42,134.1
"2009-07-19 00:47:00",1074623,1.157,183.5,3.214,0.213,20.67,110.2637,25.57,26.59,30.79,0,111.3,13.09,26.41,145.5
"2009-07-19 00:47:30",1074624,1.236,173.7,4.243,0.146,20.7,110.2637,25.57,26.59,30.78,0,111.3,13.09,26.41,135.7
"2009-07-19 00:48:00",1074625,1.286,175.6,4.738,0.219,20.69,110.2631,25.57,26.58,30.63,0,111.3,13.09,26.41,137.6
"2009-07-19 00:48:30",1074626,1.505,174.9,4.613,0.117,20.63,110.2645,25.57,26.59,30.63,0,111.3,13.09,26.42,136.9
"2009-07-19 00:49:00",1074627,1.46,180.1,2.996,0.052,20.64,110.2645,25.57,26.58,30.61,0,111.3,13.09,26.42,142.1
"2009-07-19 00:49:30",1074628,1.647,171.8,10.16,0.319,20.71,110.2653,25.58,26.59,30.64,0,111.3,13.09,26.42,133.8
"2009-07-19 00:50:00",1074629,1.723,161.4,13.42,0.426,20.7,110.2648,25.57,26.59,30.59,0,111.3,13.09,26.42,123.4
"2009-07-19 00:50:30",1074630,1.198,161.7,10.38,0.249,20.68,110.2412,25.51,26.6,30.54,0,111.3,13.09,26.36,123.7
"2009-07-19 00:51:00",1074631,2.409,163.4,4.96,0.317,20.73,110.2322,25.49,26.57,30.91,0,111.3,13.09,26.33,125.4
"2009-07-19 00:51:30",1074632,2.384,167.9,4.315,0.233,20.79,110.2067,25.43,26.53,30.98,0,111.3,13.09,26.27,129.9
"2009-07-19 00:52:00",1074633,2.255,153.8,6.878,0.334,20.83,110.1924,25.39,26.49,30.85,0,111.3,13.09,26.23,115.8
"2009-07-19 00:52:30",1074634,1.708,148.7,6.654,0.169,20.77,110.1972,25.4,26.46,30.87,0,111.3,13.09,26.24,110.7
"2009-07-19 00:53:00",1074635,1.482,159.7,4.758,0.104,20.8,110.1986,25.4,26.44,30.87,0,111.3,13.09,26.25,121.7
"2009-07-19 00:53:30",1074636,1.474,161,5.444,0.158,20.79,110.198,25.4,26.45,30.91,0,111.3,13.09,26.24,123.0
"2009-07-19 00:54:00",1074637,1.506,164.1,6.189,0.107,20.74,110.1986,25.4,26.43,30.89,0,111.3,13.09,26.25,126.1
"2009-07-19 00:54:30",1074638,1.455,166,6.104,0.186,20.82,110.2031,25.42,26.45,30.89,0,111.3,13.08,26.26,128.0
"2009-07-19 00:55:00",1074639,1.627,170,3.916,0.139,20.68,110.207,25.43,26.45,30.9,0,111.3,13.08,26.27,132.0
"2009-07-19 00:55:30",1074640,1.464,172.3,5.253,0.198,20.75,110.207,25.43,26.46,30.9,0,111.3,13.08,26.27,134.3
"2009-07-19 00:56:00",1074641,0.894,178.4,9.33,0.142,20.79,110.207,25.43,26.46,30.93,0,111.3,13.08,26.27,140.4
"2009-07-19 00:56:30",1074642,0.957,131.3,6.133,0.346,20.8,110.2126,25.44,26.48,30.86,0,111.3,13.08,26.28,93.3
"2009-07-19 00:57:00",1074643,1.697,128,7.423,0.291,20.82,110.2162,25.45,26.48,30.8,0,111.3,13.08,26.29,90.0
"2009-07-19 00:57:30",1074644,1.908,140,5.505,0.179,21.01,110.2031,25.42,26.47,30.69,0,111.3,13.08,26.26,102.0
"2009-07-19 00:58:00",1074645,1.663,146.9,6.649,0.261,21.17,110.1781,25.35,26.46,30.7,0,111.3,13.08,26.19,108.9
"2009-07-19 00:58:30",1074646,1.514,177.9,7.73,0.168,21.26,110.139,25.25,26.4,30.87,0,111.3,13.09,26.09,139.9
"2009-07-19 00:59:00",1074647,2.271,167.9,5.691,0.308,21.36,110.1114,25.18,26.33,31.17,0,111.3,13.09,26.02,129.9
"2009-07-19 00:59:30",1074648,2.6,176.2,2.971,0.112,21.47,110.0947,25.14,26.27,30.64,0,111.3,13.09,25.98,138.2
"2009-07-19 01:00:00",1074649,2.484,179.7,4.377,0.179,21.49,110.0756,25.09,26.22,30.52,0,111.3,13.09,25.93,141.7
"2009-07-19 01:00:30",1074650,2.452,176,2.592,0.152,21.54,110.065,25.06,26.16,30.61,0,111.3,13.09,25.90,138.0
"2009-07-19 01:01:00",1074651,2.585,171.7,4.154,0.157,21.66,110.0631,25.06,26.14,30.78,0,111.3,13.09,25.90,133.7
"2009-07-19 01:01:30",1074652,2.597,170.6,2.594,0.105,21.7,110.0625,25.06,26.11,30.94,0,111.3,13.09,25.89,132.6
"2009-07-19 01:02:00",1074653,2.599,178.9,4.315,0.192,21.67,110.0625,25.06,26.09,31.42,0,111.3,13.09,25.89,140.9
"2009-07-19 01:02:30",1074654,2.237,182.2,1.894,0.087,21.7,110.0614,25.05,26.09,31.49,0,111.3,13.09,25.89,144.2
"2009-07-19 01:03:00",1074655,2.406,181.2,1.69,0.258,21.75,110.0595,25.05,26.08,31.52,0,111.3,13.09,25.89,143.2
"2009-07-19 01:03:30",1074656,2.447,182.2,2.246,0.184,21.73,110.0547,25.04,26.08,31.59,0,111.3,13.09,25.87,144.2
"2009-07-19 01:04:00",1074657,2.362,190.7,3.65,0.11,21.71,110.048,25.02,26.08,31.54,0,111.3,13.09,25.86,152.7
"2009-07-19 01:04:30",1074658,2.535,190.5,2.309,0.213,21.77,110.0404,25,26.08,31.16,0,111.3,13.09,25.84,152.5
"2009-07-19 01:05:00",1074659,2.139,194.4,4.956,0.214,21.7,110.0381,24.99,26.05,31,0,111.3,13.09,25.83,156.4
"2009-07-19 01:05:30",1074660,1.943,184,3.372,0.22,21.62,110.0322,24.98,26.05,31.03,0,111.3,13.09,25.82,146.0
"2009-07-19 01:06:00",1074661,2.134,183.9,3.515,0.098,21.5,110.0303,24.97,26.05,30.97,0,111.3,13.09,25.81,145.9
"2009-07-19 01:06:30",1074662,1.792,179.6,4.246,0.151,21.32,110.0303,24.97,26.03,30.91,0,111.3,13.09,25.81,141.6
"2009-07-19 01:07:00",1074663,1.936,179.4,3.636,0.169,21.3,110.0129,24.93,26.01,30.95,0,111.3,13.09,25.77,141.4
"2009-07-19 01:07:30",1074664,1.751,178.3,6.842,0.125,21.19,110.0076,24.91,25.99,31.15,0,111.3,13.09,25.75,140.3
"2009-07-19 01:08:00",1074665,1.494,164.7,7.8,0.151,21.13,110.0081,24.92,25.96,31.26,0,111.3,13.09,25.75,126.7
"2009-07-19 01:08:30",1074666,1.731,164.1,4.371,0.108,21.1,110.0022,24.9,25.94,31.39,0,111.3,13.09,25.74,126.1
"2009-07-19 01:09:00",1074667,1.618,162.5,4.401,0.091,21.02,109.9884,24.86,25.92,31.6,0,111.3,13.1,25.70,124.5
"2009-07-19 01:09:30",1074668,1.836,167,5.316,0.266,21.04,109.986,24.86,25.89,31.65,0,111.3,13.1,25.70,129.0
"2009-07-19 01:10:00",1074669,1.951,164.9,4.481,0.12,21.1,109.9864,24.86,25.88,31.48,0,111.3,13.09,25.70,126.9
"2009-07-19 01:10:30",1074670,1.776,164.1,4.786,0.085,21.02,109.9898,24.87,25.87,31.5,0,111.2,13.09,25.71,126.1
"2009-07-19 01:11:00",1074671,1.67,166.6,3.098,0.057,20.92,109.9895,24.87,25.87,31.53,0,111.2,13.09,25.71,128.6
"2009-07-19 01:11:30",1074672,1.773,173,3.637,0.153,21.02,109.9898,24.87,25.84,31.49,0,111.2,13.09,25.71,135.0
"2009-07-19 01:12:00",1074673,1.871,174.6,4.408,0.122,21.08,109.9888,24.87,25.84,31.17,0,111.2,13.09,25.70,136.6
"2009-07-19 01:12:30",1074674,1.796,166.8,8.23,0.172,21.02,109.9753,24.83,25.82,31.5,0,111.2,13.09,25.67,128.8
"2009-07-19 01:13:00",1074675,1.539,165.4,8.11,0.129,20.99,109.9596,24.79,25.81,31.23,0,111.2,13.09,25.63,127.4
"2009-07-19 01:13:30",1074676,1.622,135.2,3.607,0.195,20.99,109.9568,24.78,25.79,31.27,0,111.2,13.09,25.62,97.2
"2009-07-19 01:14:00",1074677,1.694,131.7,2.325,0.211,21.03,109.9565,24.78,25.78,31.28,0,111.2,13.09,25.62,93.7
"2009-07-19 01:14:30",1074678,1.819,128.4,3.217,0.113,21.01,109.9571,24.78,25.77,31.1,0,111.2,13.09,25.62,90.4
"2009-07-19 01:15:00",1074679,1.812,133.5,1.59,0.069,21.14,109.9571,24.78,25.75,30.85,0,111.2,13.09,25.62,95.5
"2009-07-19 01:15:30",1074680,1.759,141.9,3.63,0.078,21,109.9579,24.79,25.77,30.74,0,111.2,13.09,25.62,103.9
"2009-07-19 01:16:00",1074681,1.685,142.1,2.363,0.066,21.07,109.9658,24.81,25.78,30.6,0,111.2,13.1,25.65,104.1
"2009-07-19 01:16:30",1074682,1.696,134.2,2.057,0.073,21.12,109.9756,24.83,25.79,30.83,0,111.2,13.1,25.67,96.2
"2009-07-19 01:17:00",1074683,1.61,132.1,1.608,0.037,21.01,109.9943,24.88,25.81,31,0,111.2,13.1,25.72,94.1
"2009-07-19 01:17:30",1074684,1.639,131.8,1.179,0.043,21.04,109.9957,24.88,25.82,31.08,0,111.2,13.1,25.72,93.8
"2009-07-19 01:18:00",1074685,1.58,137.1,2.101,0.084,21.19,109.9966,24.89,25.83,31.03,0,111.2,13.1,25.72,99.1
"2009-07-19 01:18:30",1074686,1.349,139.3,1.278,0.056,21.01,110.0058,24.91,25.86,30.99,0,111.2,13.1,25.75,101.3
"2009-07-19 01:19:00",1074687,1.464,132.8,2.713,0.075,20.97,110.0216,24.95,25.87,30.81,0,111.2,13.1,25.79,94.8
"2009-07-19 01:19:30",1074688,1.307,137,4.287,0.085,20.97,110.0314,24.98,25.88,30.47,0,111.2,13.1,25.81,99.0
"2009-07-19 01:20:00",1074689,1.167,136.8,3.761,0.109,21.02,110.0334,24.98,25.89,30.45,0,111.2,13.1,25.82,98.8
"2009-07-19 01:20:30",1074690,1.205,139.4,5.012,0.095,21.03,110.0337,24.98,25.92,30.41,0,111.2,13.1,25.82,101.4
"2009-07-19 01:21:00",1074691,1.223,142.6,3.824,0.138,21.01,110.0348,24.98,25.93,30.37,0,111.2,13.1,25.82,104.6
"2009-07-19 01:21:30",1074692,1.214,135.8,2.819,0.078,20.98,110.0345,24.98,25.96,30.3,0,111.2,13.1,25.82,97.8
"2009-07-19 01:22:00",1074693,1.263,137,3.965,0.078,20.99,110.0337,24.98,25.96,30.18,0,111.2,13.1,25.82,99.0
"2009-07-19 01:22:30",1074694,1.038,137.4,5.555,0.103,21.05,110.0337,24.98,25.95,30.23,0,111.2,13.1,25.82,99.4
"2009-07-19 01:23:00",1074695,1.145,130,2.503,0.045,21.15,110.0337,24.98,25.94,30.45,0,111.2,13.1,25.82,92.0
"2009-07-19 01:23:30",1074696,1.113,126.7,3.34,0.042,21.17,110.0337,24.98,25.94,30.52,0,111.2,13.1,25.82,88.7
"2009-07-19 01:24:00",1074697,0.946,139.9,6.129,0.101,21.08,110.0337,24.98,25.94,30.45,0,111.2,13.1,25.82,101.9
"2009-07-19 01:24:30",1074698,0.927,148.9,4.732,0.075,21.05,110.0337,24.98,25.95,30.46,0,111.2,13.1,25.82,110.9
"2009-07-19 01:25:00",1074699,0.983,151,7.364,0.15,20.95,110.0317,24.98,25.94,30.39,0,111.2,13.1,25.82,113.0
"2009-07-19 01:25:30",1074700,1.049,135.8,4.058,0.128,21.04,110.0281,24.97,25.94,30.39,0,111.2,13.1,25.81,97.8
"2009-07-19 01:26:00",1074701,0.878,129.9,5.444,0.041,21.08,110.0109,24.92,25.92,30.32,0,111.2,13.1,25.76,91.9
"2009-07-19 01:26:30",1074702,0.927,131,4.742,0.195,21.13,110.014,24.93,25.92,30.41,0,111.2,13.1,25.77,93.0
"2009-07-19 01:27:00",1074703,1.342,135.4,4.691,0.164,21.12,110.0205,24.95,25.91,30.46,0,111.2,13.1,25.79,97.4
"2009-07-19 01:27:30",1074704,1.283,133.8,1.983,0.074,21.06,110.0286,24.97,25.91,30.42,0,111.2,13.1,25.81,95.8
"2009-07-19 01:28:00",1074705,0.955,134.3,2.765,0.145,21.2,110.0328,24.98,25.91,30.37,0,111.2,13.1,25.82,96.3
"2009-07-19 01:28:30",1074706,0.899,118.7,10.64,0.161,21.14,110.0337,24.98,25.93,30.3,0,111.2,13.09,25.82,80.7
"2009-07-19 01:29:00",1074707,0.861,116.5,6.234,0.11,21.03,110.0337,24.98,25.94,30.22,0,111.2,13.09,25.82,78.5
"2009-07-19 01:29:30",1074708,1.351,127.6,8.67,0.168,21.1,110.0337,24.98,25.95,30.18,0,111.2,13.09,25.82,89.6
"2009-07-19 01:30:00",1074709,1.19,124.8,4.78,0.09,21.16,110.0337,24.98,25.95,30.06,0,111.2,13.09,25.82,86.8
"2009-07-19 01:30:30",1074710,1.008,116.6,3.116,0.137,21.08,110.0337,24.98,25.94,30.02,0,111.2,13.09,25.82,78.6
"2009-07-19 01:31:00",1074711,1.159,118.2,3.303,0.07,21.07,110.0337,24.98,25.94,30.03,0,111.2,13.09,25.82,80.2
"2009-07-19 01:31:30",1074712,1.002,127.9,4.752,0.175,21.12,110.0337,24.98,25.94,30.11,0,111.2,13.09,25.82,89.9
"2009-07-19 01:32:00",1074713,1.031,129.2,5.502,0.112,21.22,110.0325,24.98,25.94,30.07,0,111.2,13.09,25.82,91.2
"2009-07-19 01:32:30",1074714,0.87,146.8,2.688,0.103,21.18,110.0258,24.96,25.94,30.25,0,111.2,13.1,25.80,108.8
"2009-07-19 01:33:00",1074715,0.882,136.5,4.053,0.137,21.2,110.0081,24.92,25.93,30.28,0,111.2,13.1,25.75,98.5
"2009-07-19 01:33:30",1074716,1.092,125.2,7.006,0.183,21.16,110.0003,24.9,25.92,30.09,0,111.2,13.1,25.73,87.2
"2009-07-19 01:34:00",1074717,0.92,118.5,6.036,0.057,21.17,110,24.89,25.9,29.94,0,111.2,13.1,25.73,80.5
"2009-07-19 01:34:30",1074718,1.092,127.9,2.589,0.098,21.37,110,24.89,25.89,29.96,0,111.2,13.1,25.73,89.9
"2009-07-19 01:35:00",1074719,1.248,120.5,4.274,0.082,21.36,110.0011,24.9,25.89,29.97,0,111.2,13.1,25.74,82.5
"2009-07-19 01:35:30",1074720,1.188,127.9,4.062,0.063,21.43,110.0084,24.92,25.9,29.97,0,111.2,13.1,25.75,89.9
"2009-07-19 01:36:00",1074721,1.187,127.6,3.352,0.064,21.46,110.0149,24.93,25.89,29.99,0,111.2,13.1,25.77,89.6
"2009-07-19 01:36:30",1074722,1.35,119.9,1.954,0.089,21.48,110.0196,24.94,25.91,29.98,0,111.2,13.1,25.78,81.9
"2009-07-19 01:37:00",1074723,1.475,126.8,2.688,0.072,21.45,110.0261,24.96,25.91,30.02,0,111.2,13.1,25.80,88.8
"2009-07-19 01:37:30",1074724,1.354,131.5,3.305,0.071,21.52,110.0289,24.97,25.92,30,0,111.2,13.1,25.81,93.5
"2009-07-19 01:38:00",1074725,1.257,122,2.221,0.061,21.63,110.0311,24.97,25.93,29.98,0,111.2,13.1,25.81,84.0
"2009-07-19 01:38:30",1074726,1.384,123.6,2.828,0.057,21.57,110.032,24.98,25.94,29.9,0,111.2,13.1,25.82,85.6
"2009-07-19 01:39:00",1074727,1.231,127.4,2.17,0.049,21.65,110.0323,24.98,25.94,29.85,0,111.2,13.1,25.82,89.4
"2009-07-19 01:39:30",1074728,1.22,133.2,2.258,0.108,21.56,110.0323,24.98,25.97,29.82,0,111.2,13.1,25.82,95.2
"2009-07-19 01:40:00",1074729,1.193,125.4,4.491,0.063,21.64,110.0311,24.97,25.96,29.87,0,111.2,13.1,25.81,87.4
"2009-07-19 01:40:30",1074730,1.297,127.1,2.745,0.118,21.64,110.0329,24.98,25.95,29.9,0,111.2,13.1,25.82,89.1
"2009-07-19 01:41:00",1074731,1.158,124.5,6.213,0.129,21.65,110.0324,24.98,25.95,29.91,0,111.2,13.1,25.82,86.5
"2009-07-19 01:41:30",1074732,0.98,134.4,3.475,0.078,21.66,110.0304,24.97,25.95,29.93,0,111.2,13.1,25.81,96.4
"2009-07-19 01:42:00",1074733,0.795,126.8,7.447,0.1,21.5,110.0282,24.97,25.96,29.95,0,111.2,13.1,25.81,88.8
"2009-07-19 01:42:30",1074734,0.872,114.9,6.686,0.076,21.52,110.0188,24.94,25.96,29.99,0,111.2,13.1,25.78,76.9
"2009-07-19 01:43:00",1074735,1.221,118.5,4.752,0.109,21.48,110.0174,24.94,25.95,29.89,0,111.2,13.1,25.78,80.5
"2009-07-19 01:43:30",1074736,1.17,129.5,4.559,0.093,21.5,110.0194,24.94,25.95,29.99,0,111.2,13.1,25.78,91.5
"2009-07-19 01:44:00",1074737,1.222,127.5,5.191,0.076,21.52,110.0187,24.94,25.93,30.11,0,111.2,13.11,25.78,89.5
"2009-07-19 01:44:30",1074738,1.189,122.4,2.614,0.057,21.5,109.999,24.89,25.93,30.1,0,111.2,13.1,25.73,84.4
"2009-07-19 01:45:00",1074739,1.097,124.1,6.423,0.088,21.53,109.991,24.87,25.9,30.44,0,111.2,13.1,25.71,86.1
"2009-07-19 01:45:30",1074740,1.014,122.6,4.085,0.062,21.48,109.9889,24.87,25.87,30.36,0,111.2,13.1,25.70,84.6
"2009-07-19 01:46:00",1074741,1.272,131.8,8.35,0.238,21.53,109.9677,24.81,25.83,30.36,0,111.2,13.1,25.65,93.8
"2009-07-19 01:46:30",1074742,1.549,139,2.228,0.151,21.59,109.9592,24.79,25.82,30.39,0,111.2,13.1,25.63,101.0
"2009-07-19 01:47:00",1074743,1.54,136,2.04,0.098,21.58,109.9585,24.79,25.79,30.46,0,111.2,13.1,25.63,98.0
"2009-07-19 01:47:30",1074744,1.488,130.7,2.059,0.087,21.48,109.9462,24.76,25.76,30.55,0,111.2,13.1,25.59,92.7